Вернуться в каталог

STARLINK-11490

АктивенСвязьVLEO
NORAD 62219·PAYLOAD·🇺🇸 United States

Запущен Dec 5, 2024 с Vandenberg Space Force Base

Loading…

Ближайшие Пролёты (ближайшие 24 часа)

TLE

СвежийSource: CelesTrak SupGP

Эпоха: Sep 15, 2026, 03:04 UTC

1 62219C 24231B   26258.12826389 -.00031324  00000+0 -25778-3 0  2588
2 62219  53.1573 247.4689 0001199  83.9890 291.7425 15.69748618    19

Отслеживайте STARLINK-11490 в реальном времени с AllMySat

Download on the App Store